TimeEDT,TemperatureF,Dew PointF,Humidity,Sea Level PressureIn,VisibilityMPH,Wind Direction,Wind SpeedMPH,Gust SpeedMPH,PrecipitationIn,Events,Conditions,WindDirDegrees,DateUTC
12:15 AM,51.8,39.2,62,30.03,10.0,Calm,Calm,-,N/A,,Clear,0,2012-10-11 04:15:00
12:35 AM,51.8,39.2,62,30.04,10.0,WNW,4.6,-,N/A,,Clear,300,2012-10-11 04:35:00
12:55 AM,50.0,39.2,66,30.04,10.0,WNW,3.5,-,N/A,,Clear,290,2012-10-11 04:55:00
1:15 AM,50.0,41.0,71,30.04,10.0,West,3.5,-,N/A,,Clear,280,2012-10-11 05:15:00
1:35 AM,50.0,39.2,66,30.05,10.0,West,4.6,-,N/A,,Clear,280,2012-10-11 05:35:00
1:55 AM,50.0,39.2,66,30.06,10.0,West,5.8,-,N/A,,Clear,270,2012-10-11 05:55:00
2:15 AM,50.0,39.2,66,30.07,10.0,Calm,Calm,-,N/A,,Clear,0,2012-10-11 06:15:00
2:35 AM,50.0,37.4,62,30.07,10.0,West,8.1,-,N/A,,Clear,280,2012-10-11 06:35:00
2:55 AM,50.0,37.4,62,30.08,10.0,West,3.5,-,N/A,,Clear,270,2012-10-11 06:55:00
3:15 AM,50.0,37.4,62,30.09,10.0,West,5.8,-,N/A,,Clear,280,2012-10-11 07:15:00
3:55 AM,48.2,35.6,62,30.10,10.0,West,5.8,-,N/A,,Clear,280,2012-10-11 07:55:00
4:15 AM,48.2,35.6,62,30.11,10.0,West,4.6,-,N/A,,Clear,280,2012-10-11 08:15:00
4:35 AM,46.4,35.6,66,30.12,10.0,West,4.6,-,N/A,,Scattered Clouds,270,2012-10-11 08:35:00
4:55 AM,46.4,35.6,66,30.13,10.0,WNW,8.1,-,N/A,,Clear,300,2012-10-11 08:55:00
5:15 AM,46.4,35.6,66,30.13,10.0,Calm,Calm,-,N/A,,Clear,0,2012-10-11 09:15:00
5:35 AM,46.4,35.6,66,30.15,10.0,West,3.5,-,N/A,,Clear,260,2012-10-11 09:35:00
5:55 AM,44.6,35.6,71,30.16,10.0,WNW,4.6,-,N/A,,Clear,290,2012-10-11 09:55:00
6:15 AM,46.4,33.8,62,30.16,10.0,WNW,4.6,-,N/A,,Clear,300,2012-10-11 10:15:00
6:35 AM,46.4,33.8,62,30.16,10.0,WNW,4.6,-,N/A,,Clear,300,2012-10-11 10:35:00
6:55 AM,46.4,33.8,62,30.18,10.0,WNW,6.9,-,N/A,,Clear,300,2012-10-11 10:55:00
7:15 AM,44.6,33.8,66,30.19,10.0,West,5.8,-,N/A,,Clear,280,2012-10-11 11:15:00
7:35 AM,46.4,33.8,62,30.20,10.0,NW,3.5,-,N/A,,Clear,320,2012-10-11 11:35:00
7:55 AM,46.4,32.0,57,30.21,10.0,WNW,5.8,-,N/A,,Clear,300,2012-10-11 11:55:00
8:15 AM,48.2,32.0,54,30.22,10.0,WNW,5.8,-,N/A,,Clear,300,2012-10-11 12:15:00
8:35 AM,50.0,33.8,54,30.22,10.0,WNW,3.5,-,N/A,,Clear,300,2012-10-11 12:35:00
8:55 AM,50.0,33.8,54,30.22,10.0,NW,9.2,-,N/A,,Clear,310,2012-10-11 12:55:00
9:15 AM,51.8,33.8,50,30.23,10.0,WNW,6.9,-,N/A,,Clear,300,2012-10-11 13:15:00
9:35 AM,51.8,33.8,50,30.23,10.0,West,6.9,-,N/A,,Clear,280,2012-10-11 13:35:00
9:55 AM,51.8,32.0,47,30.23,10.0,WNW,9.2,17.3,N/A,,Clear,300,2012-10-11 13:55:00
10:15 AM,53.6,32.0,44,30.24,10.0,WNW,8.1,-,N/A,,Clear,290,2012-10-11 14:15:00
10:35 AM,53.6,32.0,44,30.23,10.0,WNW,9.2,16.1,N/A,,Clear,290,2012-10-11 14:35:00
10:55 AM,53.6,32.0,44,30.23,10.0,WNW,9.2,-,N/A,,Clear,300,2012-10-11 14:55:00
11:15 AM,55.4,32.0,41,30.24,10.0,West,9.2,-,N/A,,Clear,280,2012-10-11 15:15:00
11:35 AM,55.4,32.0,41,30.23,10.0,West,9.2,16.1,N/A,,Clear,280,2012-10-11 15:35:00
11:55 AM,55.4,32.0,41,30.23,10.0,NNW,9.2,-,N/A,,Clear,340,2012-10-11 15:55:00
12:15 PM,57.2,32.0,38,30.22,10.0,West,6.9,16.1,N/A,,Clear,280,2012-10-11 16:15:00
12:35 PM,57.2,32.0,38,30.21,10.0,West,3.5,-,N/A,,Clear,280,2012-10-11 16:35:00
12:55 PM,57.2,32.0,38,30.21,10.0,WNW,6.9,-,N/A,,Clear,300,2012-10-11 16:55:00
1:15 PM,59.0,32.0,36,30.21,10.0,West,4.6,-,N/A,,Clear,270,2012-10-11 17:15:00
1:55 PM,59.0,32.0,36,30.19,10.0,WNW,4.6,-,N/A,,Clear,300,2012-10-11 17:55:00
2:15 PM,59.0,32.0,36,30.19,10.0,SW,4.6,-,N/A,,Clear,220,2012-10-11 18:15:00
2:35 PM,59.0,32.0,36,30.19,10.0,SW,8.1,-,N/A,,Clear,230,2012-10-11 18:35:00
2:55 PM,60.8,32.0,34,30.19,10.0,NW,5.8,-,N/A,,Clear,310,2012-10-11 18:55:00
3:15 PM,60.8,32.0,34,30.19,10.0,SSW,4.6,-,N/A,,Clear,200,2012-10-11 19:15:00
3:35 PM,60.8,32.0,34,30.18,10.0,WSW,8.1,-,N/A,,Clear,240,2012-10-11 19:35:00
3:55 PM,60.8,32.0,34,30.18,10.0,SW,4.6,-,N/A,,Clear,220,2012-10-11 19:55:00
4:15 PM,60.8,32.0,34,30.17,10.0,Calm,Calm,-,N/A,,Clear,0,2012-10-11 20:15:00
4:55 PM,59.0,32.0,36,30.17,10.0,West,3.5,-,N/A,,Clear,260,2012-10-11 20:55:00
5:15 PM,59.0,32.0,36,30.17,10.0,WSW,4.6,-,N/A,,Clear,250,2012-10-11 21:15:00
5:35 PM,59.0,33.8,39,30.17,10.0,WSW,6.9,-,N/A,,Clear,240,2012-10-11 21:35:00
6:15 PM,55.4,33.8,44,30.17,10.0,Calm,Calm,-,N/A,,Clear,0,2012-10-11 22:15:00
6:35 PM,53.6,33.8,47,30.17,10.0,Calm,Calm,-,N/A,,Clear,0,2012-10-11 22:35:00
6:55 PM,51.8,35.6,54,30.17,10.0,SSW,4.6,-,N/A,,Clear,210,2012-10-11 22:55:00
7:15 PM,50.0,37.4,62,30.17,10.0,SW,3.5,-,N/A,,Clear,220,2012-10-11 23:15:00
7:35 PM,50.0,37.4,62,30.17,10.0,Calm,Calm,-,N/A,,Clear,0,2012-10-11 23:35:00
7:55 PM,46.4,41.0,81,30.18,10.0,Calm,Calm,-,N/A,,Clear,0,2012-10-11 23:55:00
8:15 PM,51.8,37.4,58,30.18,10.0,SW,3.5,-,N/A,,Clear,220,2012-10-12 00:15:00
8:35 PM,50.0,37.4,62,30.18,10.0,Calm,Calm,-,N/A,,Clear,0,2012-10-12 00:35:00
9:15 PM,44.6,41.0,87,30.19,10.0,Calm,Calm,-,N/A,,Clear,0,2012-10-12 01:15:00
9:35 PM,44.6,41.0,87,30.20,10.0,Calm,Calm,-,N/A,,Clear,0,2012-10-12 01:35:00
9:55 PM,44.6,41.0,87,30.19,10.0,Calm,Calm,-,N/A,,Clear,0,2012-10-12 01:55:00
10:15 PM,42.8,39.2,87,30.18,10.0,Calm,Calm,-,N/A,,Clear,0,2012-10-12 02:15:00
10:55 PM,46.4,39.2,76,30.17,10.0,SW,3.5,-,N/A,,Clear,220,2012-10-12 02:55:00
11:15 PM,46.4,39.2,76,30.17,10.0,SW,5.8,-,N/A,,Clear,220,2012-10-12 03:15:00
11:35 PM,48.2,39.2,71,30.17,10.0,SW,4.6,-,N/A,,Clear,220,2012-10-12 03:35:00
11:55 PM,50.0,39.2,66,30.17,10.0,WSW,3.5,-,N/A,,Clear,240,2012-10-12 03:55:00